Flag for Austria Weather past 2 weeks in Traun, Upper Austria, Austria

23 °F


Feels Like: 23 °F
Forecast: 31 / 39 °F
Wind: 2 mph from East

Location: Linz / Hoersching-Flughafen

Current Time: Nov 25, 2015 at 1:12:53 AM

Latest Report: Nov 25, 2015 at 12:20 AM

Visibility: N/A

Pressure: 30.01 "Hg

Humidity: 93%

Dew point: 21 °F

Location of TraunLocation

Historic Weather in Traun — Graph


Traun temperature yesterday

Maximum temperature yesterday: 39 °F (at 1:20 PM)
Minimum temperature yesterday: 25 °F (at 10:50 PM)
Average temperature yesterday: 31 °F

Past Weeks' High & Low Weather Summary

High63 °F (Nov 10, 11:20 AM)100% (Nov 11, 11:50 PM)30.42 "Hg (Nov 11, 11:50 PM)
Low25 °F (Nov 24, 10:50 PM)45% (Nov 18, 11:50 AM)29.42 "Hg (Nov 21, 1:50 PM)
Average46 °F80%30.07 "Hg
* Reported Nov 9 11:20 PM — Nov 24 11:50 PM, Traun, Weather by CustomWeather, © 2015

Note: Actual official high and low records may vary slightly from our data, if they occured in-between our weather recording intervals... More about our weather records


Traun weather history for previous 24 hours

Time TempWeatherWind HumidityBarometerVisibility
11:50 PM
Tue, Nov 24
25 °FCold.2 mph93%30.04 "HgN/A
10:50 PM25 °FClear.1 mph93%30.07 "Hg10 mi
10:20 PM27 °FClear.1 mph86%30.07 "Hg10 mi
9:50 PM27 °FClear.2 mph86%30.07 "Hg10 mi
9:20 PM28 °FClear.1 mph80%30.07 "Hg10 mi
8:50 PM27 °FClear.No wind86%30.09 "Hg10 mi
8:20 PM28 °FClear.1 mph86%30.09 "Hg10 mi
7:50 PM30 °FClear.2 mph80%30.09 "Hg10 mi
7:20 PM30 °FClear.2 mph80%30.09 "Hg10 mi
6:50 PM30 °FClear.1 mph75%30.12 "Hg10 mi
6:20 PM30 °FClear.2 mph80%30.12 "Hg10 mi
5:50 PM32 °FClear.2 mph69%30.12 "Hg10 mi
5:20 PM34 °FPassing clouds.2 mph65%30.12 "HgN/A
4:50 PM34 °FPassing clouds.1 mph60%30.15 "HgN/A
4:20 PM36 °FPassing clouds.3 mph56%30.15 "HgN/A
3:50 PM37 °FPassing clouds.5 mph56%30.15 "HgN/A
3:20 PM37 °FPassing clouds.5 mph52%30.15 "HgN/A
2:50 PM39 °FPassing clouds.7 mph48%30.18 "HgN/A
2:20 PM37 °FPassing clouds.6 mph56%30.18 "HgN/A
1:50 PM37 °FPassing clouds.7 mph60%30.18 "HgN/A
1:20 PM39 °FPassing clouds.5 mph61%30.21 "HgN/A
12:50 PM37 °FPassing clouds.6 mph65%30.21 "HgN/A
12:20 PM37 °FPassing clouds.5 mph70%30.24 "HgN/A
11:50 AM36 °FPassing clouds.5 mph75%30.24 "HgN/A
11:20 AM36 °FPassing clouds.2 mph81%30.27 "HgN/A
10:50 AM34 °FPassing clouds.3 mph81%30.27 "HgN/A
10:20 AM34 °FPassing clouds.3 mph81%30.27 "HgN/A
9:50 AM34 °FSunny.2 mph87%30.30 "Hg10 mi
9:20 AM32 °FSunny.1 mph87%30.30 "Hg5 mi
8:50 AM30 °FFog.1 mph86%30.30 "Hg5 mi
7:50 AM28 °FFog.3 mph93%30.30 "Hg4 mi
7:20 AM27 °FFog.1 mph93%30.30 "Hg4 mi
6:50 AM27 °FFog.2 mph93%30.30 "Hg4 mi
6:20 AM27 °FPassing clouds.2 mph100%30.30 "Hg4 mi
5:50 AM28 °FClear.3 mph93%30.30 "Hg10 mi
5:20 AM28 °FClear.5 mph93%30.30 "Hg10 mi
4:50 AM28 °FClear.3 mph93%30.30 "Hg10 mi
3:50 AM28 °FPassing clouds.5 mph93%30.30 "HgN/A
3:20 AM30 °FPassing clouds.2 mph93%30.30 "HgN/A
2:50 AM30 °FPassing clouds.3 mph93%30.30 "HgN/A
2:20 AM30 °FOvercast.3 mph93%30.30 "HgN/A
1:50 AM30 °FOvercast.2 mph93%30.30 "HgN/A
1:20 AM30 °FOvercast.2 mph93%30.30 "HgN/A
Weather by CustomWeather, © 2015

See weather overviewHow to use our weather pages